Voltar ao catálogo

DELTA 1 R/B

AtivoSSO
NORAD 4322·ROCKET BODY·🇺🇸 United States

Lançado Jan 23, 1970 de Vandenberg Space Force Base

Loading…

Próximas Passagens (próximas 24 horas)

TLE

AtualizadoSource: Space-Track

Época: Sep 14, 2026, 17:46 UTC

1 04322U 70008C   26257.74092400 -.00000038  00000-0  24808-4 0  9992
2 04322 101.3390 256.1740 0028531 119.3522  53.5956 12.51931109588137

Acompanhe DELTA 1 R/B em tempo real com AllMySat

Download on the App Store